sat.trackr.live / text

‹ back to catalog

PIESAT-2 09

NORAD 62333 · 2024-241A

PAYLOAD ACTIVE UNKNOWN

§ Identity

Operator
Country
PRC
Launch date
2024-12-16
Launch site
TAISC
Launch vehicle
Mass (kg)
RCS (m²)

External: N2YO · Heavens-Above · Gunter

§ Orbital elements

Epoch: 2026-05-25T03:43:47.137152Z

Period
95.11 min
Inclination
97.5312°
Eccentricity
0.0002277
Mean motion
15.14065378 rev/d
Perigee alt
522.2 km
Apogee alt
525.4 km
Semi-major
6,902.0 km
B*
3.4055e-4
RAAN
93.0691°
Arg perigee
87.9297°
Mean anomaly
272.2195°
Rev number
7,931

§ Raw data

PIESAT-2 091 62333U 24241A   26145.15540668  .00006129  00000+0  34055-3 0  99902 62333  97.5312  93.0691 0002277  87.9297 272.2195 15.14065378 79312

JSON: /api/v1/satellites/62333 · /tle

For live sub-satellite position, see the globe view (requires WebGL).

§ Visibility from observer

Set your observer location to see the next 7 days of passes ≥ 10°. The values pass through the URL so the page stays shareable.

No JS? Fill the form by hand. The geolocation button needs JavaScript.